Regional Weather Roundup
Issued by NWS

Home | Current Version | Previous Version | Graphics & Text | Print | Product List | Glossary On
Versions: 1 2 3 4 5 6 7 8 9 10 11 12 13 14 15 16 17 18 19 20 21 22 23 24 25 26 27 28 29 30 31 32 33 34 35 36 37 38 39 40 41 42 43 44 45 46 47 48 49 50
000
ASUS43 KDMX 270807
RWRIA

WEATHER ROUNDUP FOR IOWA
NATIONAL WEATHER SERVICE DES MOINES IA
300 AM CDT WED AUG 27 2014

NOTE: "FAIR" INDICATES FEW OR NO CLOUDS BELOW 12,000 FEET WITH NO
SIGNIFICANT WEATHER AND/OR OBSTRUCTIONS TO VISIBILITY.

* - THESE STATIONS ARE NOT NWS STATIONS...THUS NOT UNDER NWS
QUALITY CONTROL.  THEY ALSO DO NOT REPORT WEATHER SUCH
AS PRECIPITATION OR FOG.

IAZ001>003-012>014-020>022-031>034-043>046-270900-
   NORTHWEST IOWA

CITY           SKY/WX    TMP DP  RH WIND       PRES   REMARKS
CARROLL *      CLOUDY    63  61  94 CALM      30.15S
CHEROKEE *     MOCLDY    59  59 100 N3        30.16S
DENISON *      CLOUDY    64  64 100 CALM      30.13S
LE MARS *      MOCLDY    61  59  94 N5        30.17R
ORANGE CITY *  CLEAR     61  55  82 NE5       30.18R
SHELDON *      PTCLDY    57  55  94 CALM      30.17R
SIOUX CITY     CLOUDY    65  60  84 E3        30.14F
SPENCER        CLEAR     57  54  89 NE3       30.18R
STORM LAKE *   CLOUDY    61  61 100 E7        30.16F
$$

IAZ055>058-069>071-079>083-090>094-270900-
   SOUTHWEST IOWA

CITY           SKY/WX    TMP DP  RH WIND       PRES   REMARKS
ATLANTIC *     MOCLDY    64  64 100 N3        30.11F
AUDUBON *      PTCLDY    66  64  94 CALM      30.15F
CLARINDA *     MOCLDY    70  68  94 CALM      30.13R
COUNCIL BLFS * CLEAR     68  66  94 E6        30.10F
CRESTON *      PTCLDY    66  66 100 NE7       30.13F
HARLAN  *      PTCLDY    64  64 100 N5        30.16F
LAMONI         PTCLDY    69  66  90 E5        30.12F
RED OAK *      CLOUDY    68  66  94 CALM      30.12S
SHENANDOAH *   LGT RAIN  72  70  94 E8        30.11F
$$

IAZ047>049-059>061-072>074-084-270900-
   CENTRAL IOWA

CITY           SKY/WX    TMP DP  RH WIND       PRES   REMARKS
AMES           LGT RAIN  66  65  96 CALM      30.14F
ANKENY *       MOCLDY    68  64  88 CALM      30.13S
CHARITON *     PTCLDY    66  64  94 NE6       30.12F
DES MOINES     MOCLDY    71  63  75 E6        30.12F
GRINNELL*      LGT RAIN  66  63  88 CALM      30.16R
KNOXVILLE *    CLEAR     68  64  88 CALM      30.12F
MARSHALLTOWN   CLOUDY    65  63  93 NE3       30.14S
PELLA *        MOCLDY    68  64  88 CALM      30.15R
PERRY *          N/A     66  64  94 NE3       30.14S
$$

IAZ004>006-015-016-023>025-035-036-270900-
   NORTH CENTRAL IOWA

CITY           SKY/WX    TMP DP  RH WIND       PRES   REMARKS
ALGONA *       CLEAR     59  57  94 NE6       30.17F
CLARION *      CLEAR     61  59  94 NE7       30.16S
ESTHERVILLE    CLEAR     58  56  93 NE3       30.17S
FORT DODGE *   CLOUDY    63  61  94 NE3       30.16S
MASON CITY     CLEAR     57  56  96 N6        30.19S
FOREST CITY *  CLEAR     59  59 100 CALM      30.18R
IOWA FALLS *     N/A     63  59  88 CALM      30.17S
$$

IAZ007>011-017>019-026>030-037>042-050>054-066-270900-
   NORTHEAST IOWA

CITY           SKY/WX    TMP DP  RH WIND       PRES   REMARKS
CEDAR RAPIDS   CLOUDY    68  63  84 E3        30.13F
CHARLES CITY * CLEAR     61  59  94 NE6       30.18S
CLINTON *      CLOUDY    66  64  94 NE8       30.14F
DECORAH *      MOCLDY    61  57  88 CALM      30.17S
DUBUQUE        CLOUDY    65  60  84 NE7       30.16R
MONTICELLO *   PTCLDY    66  64  94 CALM      30.14F
OELWEIN *      MOCLDY    63  59  88 NE6       30.17S
WATERLOO       MOCLDY    63  59  87 NE3       30.14S
$$

IAZ064-065-067-068-078-270900-
   EAST CENTRAL IOWA

CITY           SKY/WX    TMP DP  RH WIND       PRES   REMARKS
DAVENPORT      CLOUDY    67  64  90 N5        30.14S
IOWA CITY      CLOUDY    69  66  90 CALM      30.14F
MT. PLEASANT * MOCLDY    70  66  88 N6        30.13S
MUSCATINE *    CLEAR     68  64  88 CALM      30.13S
QUAD CITIES    CLOUDY    72  65  78 CALM      30.12F
$$

IAZ062-063-075>077-085>089-095>099-270900-
   SOUTHEAST IOWA

CITY           SKY/WX    TMP DP  RH WIND       PRES   REMARKS
BURLINGTON     CLOUDY    71  69  93 N8        30.11S
FAIRFIELD *    MOCLDY    68  64  88 N7        30.12F
FORT MADISON * PTCLDY    70  70 100 CALM      30.13R
KEOKUK *       CLEAR     70  68  94 CALM      30.11S
OSKALOOSA *      N/A     64  64 100 NE5       30.13F
CENTERVILLE *  PTCLDY    66  66 100 E3        30.14F
OTTUMWA        PTCLDY    68  64  87 NE5       30.12F
WASHINGTON *   CLEAR     68  66  94 NE5       30.13F
$$

ABBREVIATIONS USED IN REMARKS
   TC - TEMPERATURES IN CELSIUS
  WCI - WIND CHILL INDEX
   HX - HEAT INDEX
  VSB - VISIBILITY
$$




USA.gov is the U.S. government's official web portal to all federal, state and local government web resources and services.